SL-16 DEB

Satellite information

Favourite Embed

Satellite Type and Status

DEBRISIN ORBIT

Key statistics

Satellite SL-16 DEB at a glance.

Uptime

11820

Days in orbit

Revolutions

≈ 14.0

Per day

Orbit

LEO

Low Earth Orbit

Inclination

70.7

Latest

Satellite identification and parameters

Extended collection of information and parameters for SL-16 DEB.

Object identification

Identified? True

Debris? True

Object name: SL-16 DEB

International designator: 1992-093AY

Object number (NORAD): 22359

Object ID (CCSDS): 22359

Country: COMMONWEALTH OF INDEPENDENT STATES (CIS)

Current information (Y/N): Y

RCS size: SMALL

Orbital parameters

Period: 103.151 minutes

Inclination: 70.7409 deg

SMA: 7285.767 km

Apoapsis: 1024.069 km

Periapsis: 791.195 km

RAAN: 69.0454 deg

Eccentricy: 0.0159814

Argument of periapsis: 350.7156 deg

Mean anomaly: 79.4349 deg

Mean motion: 13.96014223 rev/day

Mean motion (dot): 0.00002564 rev/day2

B* drag term: 0.001711 1/REarth

Two-line elements (TLE)

Creation date: May 6, 2025, 3:54 a.m.

Reference frame: TEME

Reference center: EARTH

Epoch: May 5, 2025, 5:07 p.m. UTC

TLE line 0: 0 SL-16 DEB

TLE line 1: 1 22359U 92093AY 25125.71376263 .00002564 00000-0 17110-2 0 9993

TLE line 2: 2 22359 70.7409 69.0454 0159814 350.7156 79.4349 13.96014223634171

Live tracking on map

Real-time ground track for satellite SL-16 DEB.

In-orbit conjunctions

A list of the most updated potential collisions computed for object SL-16 DEB.

Target Orbit TCA Probability of collision Miss distance Type
CZ-6A DEB LEO 2024-11-13 00:09:56 0.0002417586 870.0 (m) DEBRIS
FENGYUN 1C DEB SSO 2024-11-09 18:41:34 0.0001410416 337.0 (m) DEBRIS
SL-16 DEB LEO 2024-11-08 08:27:10 0.0002303711 479.0 (m) DEBRIS

Associated space launch

Second generation ELING satellite

SL-16 DEB was lifted into orbit during the mission ‘Zenit-2 | Tselina-2 12’, on board a Zenit-2 space rocket.

The launch took place on Dec. 25, 1992, 5:56 a.m. from 45/1.

For more information about the launch, click the button.

Launch to space Zenit-2 | Tselina-2 12
Zenit-2 | Tselina-2 12

Agency: N/A

Status: Launch Successful

Launch date: Dec. 25, 1992, 5:56 a.m. UTC

Rocket: Zenit-2

Launch pad: 45/1

Location: Baikonur Cosmodrome, Republic of Kazakhstan

...

Latest news about this satellite

There are no fresh news available about this satellite. Check back as we update our databases every day.


Newsletter sign-up

Weekly statistics, charts and insights to help you stay on top of the space industry.